CZ-6A DEB, 55884

Orbit data source: Space-Track

CZ-6A DEB, 55884 is space debris in SSO originally from a launch on Fri, 11 Nov 2022 UTC launched from the Taiyaun Space Center, China (TSC). Debris objects in space refer to the collection of defunct objects orbiting the Earth. Examples of debris include non-operational satellites, rocket bodies, and fragments generated from explosions, collisions, or faulty payload assembly.

Loading next visibility...
Identifier
55884, 2022-151AAG
Orbit
SSO
Country
Flag of CNCN / PRC
Related business
Manufacturer
SAST
Mission
Spacecraft
Bus & Motor
Unknown
Mass
Unknown
Launch date (UTC)
2022-11-11 (3 years ago)
Launch vehicle
Unknown
Launch site
Taiyaun Space Center, China (TSC)
Object type
Payload
Rocket body
Debris
Shape & HBR
Unknown shape, 0.1 m
Radar Cross Section
Small (<0.1 m²)

Expand to show TLE details & history
Last TLE update: 22 hours ago

TLE from 22 hours ago
0 CZ-6A DEB
1 55884U 22151AAG 25349.94250276  .00001962  00000-0  10296-2 0  9997
2 55884  98.8364 350.3108 0051085 134.9144 225.6192 14.14660298144811
Epoch: 2025-12-15T22:37Z
TLE epoch observation values (Epoch: 2025-12-15T22:37:12.238Z)
Latitude
-0.00001°
Longitude
-73.82402°
Altitude
872.275 km
Speed
7.403 km/s
True Right ascension
23h 21m 14s
True Declination
0° 00' 00"
Sunlit
Object was in daylight at epoch
Visualization orbit readout
Latitude
Unknown
Longitude
Unknown
Altitude
Unknown
Speed
Unknown
Apparent Right ascension
Unknown
Apparent Declination
Unknown
Sunlit
N/A
Visualization observer readout
Local Sidereal Time
19:47:46
Azimuth
Unknown
Elevation
Unknown
Doppler factor
Unknown
Orbital elements
Apogee altitude
877.517 km
Perigee altitude
803.763 km
Semi-major axis
7,218.777 km
Eccentricity
0.00511
Inclination
98.8364°
RAAN
350.3108°
Arg. of periapsis
134.9144°
True anomaly
225.20268°
Mean anomaly
225.6192°
Eccentric anomaly
225.41075°
Mean motion
3.53873 °/min
Orbital period
101.73 mins
BSTAR
0.0010296
Loading maneuver chart data...
Computing Atmospheric mass density...

Documentation

Showing up to 5 results
|